Regional Weather Roundup
Issued by NWS

Home | Current Version | Previous Version | Graphics & Text | Print | Product List | Glossary Off
Versions: 1 2 3 4 5 6 7 8 9 10 11 12 13 14 15 16 17 18 19 20 21 22 23 24 25 26 27 28 29 30 31 32 33 34 35 36 37 38 39 40 41 42 43 44 45 46 47 48 49 50

000
ASUS43 KTOP 271359
RWRKS

WEATHER ROUNDUP FOR KANSAS
NATIONAL WEATHER SERVICE GOODLAND KS
800 AM CST SAT DEC 27 2014

NOTE:  "FAIR" INDICATES FEW OR NO CLOUDS BELOW 12,000 FEET WITH NO
SIGNIFICANT WEATHER AND/OR OBSTRUCTIONS TO VISIBILITY.

KSZ001>006-013>018-027>032-041>047-271500-
NORTHWEST KANSAS

CITY           SKY/WX    TMP DP  RH WIND       PRES   REMARKS
GOODLAND       PTCLDY     5   2  87 W9        30.23R
HAYS           PTCLDY    14   3  62 NW6       30.27S
HILL CITY      CLOUDY    10   6  84 W6        30.28R
RUSSELL        PTCLDY    16  13  88 W7        30.27R
$$

KSZ061>065-074>080-084>089-271500-
SOUTHWEST KANSAS

CITY           SKY/WX    TMP DP  RH WIND       PRES   REMARKS
DODGE CITY     MOCLDY    16  12  84 NW10      30.27R WCI   4
ELKHART          N/A     12   5  73 NW7         N/A
GARDEN CITY    PTCLDY     9   6  88 NW10      30.27R WCI  -5
GREAT BEND     PTCLDY    18  10  73 NW9       30.31R
LIBERAL        PTCLDY    16   9  73 NW9       30.29R
$$

KSZ066>073-081>083-090>101-271500-
SOUTHEAST KANSAS

CITY           SKY/WX    TMP DP  RH WIND       PRES   REMARKS
CHANUTE        CLOUDY    31  25  78 NW9       30.24F
COFFEYVILLE    FLURRIES  32  30  92 NW6       30.27R
HUTCHINSON     PTCLDY    24  16  71 NW10      30.30R WCI  14
MEDICINE LODGE   N/A     24  17  74 N13       30.29F WCI  12
NEWTON         MOCLDY    25  14  63 NW10      30.27F WCI  15
PARSONS        FLURRIES  32  30  92 NW7       30.28R
WICHITA INTL   CLOUDY    27  18  69 NW15      30.27R WCI  15
WICHITA JABRA  CLOUDY    26  19  74 NW10      30.27R WCI  16
WICHITA MCCONL CLOUDY    27  19  73 N9        30.28R
WINFIELD       CLOUDY    29  20  69 NW10      30.30R WCI  20
$$

KSZ007>012-019>026-033>040-048>060-102>105-271500-
NORTHEAST KANSAS

CITY           SKY/WX    TMP DP  RH WIND       PRES   REMARKS
CONCORDIA      PTCLDY    19  14  81 NW9       30.27R
EMPORIA        CLOUDY    26  21  81 NW10      30.26R WCI  16
LAWRENCE       CLOUDY    29  23  78 W14       30.24R WCI  18
MANHATTAN      MOCLDY    23  18  81 NW7       30.27R
OLATHE IND     CLOUDY    29  25  85 NW9       30.21F
OLATHE EXE     CLOUDY    30  25  81 NW9       30.20R
SALINA         PTCLDY    23  16  74 NW12      30.32R WCI  12
TOPEKA BILLARD CLOUDY    29  22  75 NW10      30.22F WCI  20
TOPEKA FORBES  CLOUDY    28  22  78 NW14      30.20S WCI  17
$$


USA.gov is the U.S. government's official web portal to all federal, state and local government web resources and services.